User: anonymous   Login
Location: Chefe Valiua
(16.5342°S, 37.2214°E)
Time: 08:26:58
(UTC+00:00)
Language:

Cosmos 1943 Rocket - Orbit

View from above orbital plane
View from above orbital plane
View from above satellite
View from above satellite

Ground track
Ground track

The orbit data is extracted from the following two-line orbital elements,

1 19120U 88039B   21103.16065303  .00000080  00000-0  61182-4 0  9992
2 19120  71.0140 255.2218 0023109 212.5108 147.4595 14.19222680704446
Epoch (UTC): 13 April 2021 03:51:20
Eccentricity: 0.0023109
inclination: 71.0140°
perigee height: 811 km
apogee height: 844 km
right ascension of ascending node: 255.2218°
argument of perigee: 212.5108°
revolutions per day: 14.19222680
mean anomaly at epoch: 147.4595°
orbit number at epoch: 70444

The dashed part of the orbit path shows where the satellite is in the earth's shadow,  

DLR